WGS 10 (USA 291)

Last updated on Nov. 29, 2020, 6:16 a.m. UTC

1 44071U 19014A   20333.49355015  .00000065  00000-0  00000+0 0  9994
2 44071   0.1127  98.1602 0000882 121.4284  86.2920  1.00270878  6281
UTC
Height (km)
Latitude
Longitude
Inclination
Orbital Period
UTC large
Height (km)
Speed (km/s)
/
Latitude / Longitude
Inclination (degrees)
Orbital Period (minutes)
Azimuth
Elevation
Range (km)
Doppler Factor
iOS Compass Heading
iOS Angle

Next 30 passes for location: Hong Kong

Rise time Rise Azimuth (degrees) Set time Set Azimuth (degrees) Duration Max altitude (degrees)

No matching passes for this satellites